EW7833 Weather Reports


Display with metric or nautical units.
time (UTC)temp
F
wind
direction
speed
MPH
gust
MPH
rain 1hr
in
rain 24hr
in
rain mn
in
humidity
%
barometer
mb
20260906144522 68 243 0.0 1.0 0.00 0.00 0.00 87 1020.7
20260906143025 66 243 0.0 1.0 0.00 0.00 0.00 89 1020.8
20260906141513 64 236 0.0 1.0 0.00 0.00 0.00 91 1020.8
20260906140014 63 236 0.0 1.0 0.00 0.00 0.00 92 1020.9
20260906134509 61 165 0.0 0.0 0.00 0.01 0.00 91 1020.8
20260906133005 59 158 0.0 0.0 0.00 0.01 0.00 88 1020.8
20260906131558 58 117 0.0 0.0 0.00 0.01 0.00 85 1020.8
20260906130055 56 117 0.0 0.0 0.00 0.01 0.00 85 1020.7
20260906124551 54 117 0.0 0.0 0.00 0.01 0.00 86 1020.6
20260906123056 53 117 0.0 1.0 0.00 0.01 0.00 86 1020.5
20260906121548 53 117 0.0 0.0 0.00 0.01 0.00 86 1020.4
20260906120051 52 117 0.0 0.0 0.00 0.01 0.00 87 1020.4
20260906114545 50 117 0.0 0.0 0.00 0.01 0.00 89 1020.3
20260906113045 50 117 0.0 0.0 0.00 0.01 0.00 90 1020.1
20260906111546 50 117 0.0 0.0 0.00 0.01 0.00 91 1020.0
20260906110046 51 117 0.0 0.0 0.00 0.01 0.00 90 1020.0
20260906104540 52 117 0.0 0.0 0.00 0.01 0.00 90 1020.0
20260906103054 52 117 0.0 0.0 0.00 0.01 0.00 90 1019.9
20260906101538 52 117 0.0 0.0 0.00 0.01 0.00 89 1020.0
20260906100036 53 117 0.0 0.0 0.00 0.01 0.00 89 1019.7
20260906094533 53 117 0.0 0.0 0.00 0.01 0.00 90 1019.5
20260906093037 53 117 0.0 0.0 0.00 0.01 0.00 89 1019.4
20260906091531 52 117 0.0 0.0 0.00 0.01 0.00 89 1019.4
20260906090050 52 117 0.0 0.0 0.00 0.01 0.00 88 1019.4
20260906084529 52 117 0.0 0.0 0.00 0.01 0.00 89 1019.2
20260906083032 51 117 0.0 0.0 0.00 0.01 0.00 91 1018.9
20260906081525 51 117 0.0 0.0 0.00 0.01 0.00 91 1018.7
20260906080024 51 117 0.0 0.0 0.00 0.01 0.00 91 1018.7
20260906074523 52 117 0.0 0.0 0.00 0.01 0.00 91 1018.8
20260906073021 51 117 0.0 0.0 0.00 0.01 0.00 91 1018.7
20260906071520 52 117 0.0 0.0 0.00 0.01 0.00 91 1018.6
20260906070019 52 117 0.0 0.0 0.00 0.01 0.00 92 1018.5
20260906064517 52 117 0.0 0.0 0.00 0.01 0.00 91 1018.6
20260906063028 53 117 0.0 0.0 0.00 0.01 0.00 91 1018.6
20260906061516 52 117 0.0 0.0 0.00 0.01 0.00 91 1018.5
20260906060015 52 117 0.0 0.0 0.00 0.01 0.00 92 1018.6
20260906054512 53 117 0.0 0.0 0.00 0.01 0.00 92 1018.5
20260906053010 53 117 0.0 0.0 0.00 0.01 0.00 92 1018.4
20260906051511 53 117 0.0 0.0 0.00 0.01 0.00 92 1018.3
20260906050008 54 117 0.0 0.0 0.00 0.01 0.00 92 1018.3
20260906044507 54 117 0.0 0.0 0.00 0.01 0.00 91 1018.5
20260906043005 54 117 0.0 0.0 0.00 0.01 0.00 92 1018.4
20260906041506 54 117 0.0 0.0 0.00 0.01 0.00 92 1018.2
20260906040004 54 117 0.0 0.0 0.00 0.01 0.00 92 1018.1
20260906034634 55 117 0.0 0.0 0.00 0.01 0.01 92 1017.8
20260906033058 55 117 0.0 0.0 0.00 0.01 0.01 92 1017.8
20260906031600 56 117 0.0 0.0 0.00 0.01 0.01 92 1017.8
20260906030057 56 117 0.0 0.0 0.00 0.01 0.01 92 1017.7
20260906024556 56 117 0.0 0.0 0.00 0.01 0.01 92 1017.6
20260906023056 57 117 0.0 0.0 0.00 0.01 0.01 92 1017.4
20260906021554 58 117 0.0 0.0 0.00 0.01 0.01 92 1017.3
20260906020100 58 117 0.0 0.0 0.00 0.01 0.01 92 1017.3
20260906014553 59 117 0.0 0.0 0.00 0.01 0.01 91 1017.3
20260906013103 60 117 0.0 0.0 0.00 0.01 0.01 91 1017.2
20260906011551 61 117 0.0 0.0 0.00 0.01 0.01 90 1017.1
20260906010053 61 117 0.0 0.0 0.00 0.01 0.01 88 1017.0
20260906004552 62 117 0.0 0.0 0.00 0.01 0.01 86 1017.1
20260906003050 63 117 0.0 0.0 0.00 0.01 0.01 84 1017.2
20260906001550 65 117 0.0 0.0 0.00 0.01 0.01 81 1017.1
20260906000101 66 117 0.0 0.0 0.00 0.01 0.01 79 1017.0
20260905234601 68 117 0.0 0.0 0.00 0.01 0.01 75 1016.8
20260905233048 69 117 0.0 0.0 0.00 0.01 0.01 72 1016.7
20260905231547 71 117 0.0 0.0 0.00 0.01 0.01 70 1016.7
20260905230045 72 117 0.0 0.0 0.00 0.01 0.01 65 1016.7
20260905224544 73 117 0.0 2.0 0.00 0.01 0.01 63 1016.6
20260905223048 73 122 0.0 1.0 0.00 0.01 0.01 61 1016.5
20260905221541 74 115 0.0 2.0 0.00 0.01 0.01 61 1016.4
20260905220041 74 115 0.0 1.0 0.00 0.01 0.01 60 1016.3
20260905214541 75 119 0.0 1.0 0.00 0.01 0.01 60 1016.4
20260905213039 75 117 0.0 2.0 0.00 0.01 0.01 58 1016.3
20260905211539 75 106 0.0 3.0 0.00 0.01 0.01 58 1016.2
20260905210049 76 103 1.0 6.0 0.00 0.01 0.01 57 1016.3
20260905204537 75 120 0.0 5.0 0.00 0.01 0.01 57 1016.4
20260905203046 76 146 1.0 4.0 0.00 0.01 0.01 57 1016.4
20260905201536 76 115 0.0 3.0 0.00 0.01 0.01 56 1016.4
20260905200036 76 94 1.0 4.0 0.00 0.01 0.01 57 1016.4
20260905194534 76 84 0.0 3.0 0.00 0.01 0.01 60 1016.4
20260905193035 77 101 0.0 3.0 0.00 0.01 0.01 60 1016.5
20260905191537 77 124 0.0 4.0 0.00 0.01 0.01 64 1016.8
20260905190033 77 126 0.0 3.0 0.00 0.01 0.01 63 1016.9
20260905184531 77 122 1.0 4.0 0.00 0.01 0.01 60 1016.9
20260905183029 76 119 0.0 4.0 0.00 0.01 0.01 62 1016.9
20260905181528 76 108 2.0 6.0 0.00 0.01 0.01 59 1017.0
20260905180026 76 111 0.0 3.0 0.00 0.01 0.01 63 1017.0
20260905174525 75 130 0.0 2.0 0.00 0.01 0.01 64 1017.0
20260905173024 75 111 0.0 1.0 0.00 0.01 0.01 64 1017.1
20260905171528 75 123 0.0 1.0 0.00 0.01 0.01 67 1017.1
20260905170024 74 65 0.0 2.0 0.00 0.01 0.01 70 1017.0
20260905164519 74 111 0.0 2.0 0.00 0.01 0.01 72 1017.2
20260905163022 74 136 0.0 3.0 0.00 0.01 0.01 73 1017.4
20260905161517 74 108 0.0 3.0 0.00 0.01 0.01 73 1017.4
20260905160017 74 58 0.0 2.0 0.00 0.01 0.01 73 1017.4
20260905154515 75 176 0.0 2.0 0.00 0.01 0.01 74 1017.3
20260905153014 74 113 0.0 2.0 0.00 0.01 0.01 72 1017.3
20260905151512 74 117 0.0 1.0 0.00 0.01 0.01 74 1017.2
20260905150010 74 117 0.0 0.0 0.00 0.01 0.01 75 1017.0